Kuchera_Ratio
0.0 0.0 0.0 0.0 0.0 0.0 0.0 0.0 0.0 0.0 0.0 0.0 0.0 0.0 0.0 0.0 0.0 0.0 0.0 0.0 0.0 0.0 0.0 0.0 0.0 0.0 0.0 0.0 0.0 0.0 0.0 0.0
0.0 0.0 0.0 0.0 0.0 0.0 0.0 0.0 0.0 0.0 0.0 0.0 0.0 0.0 0.0 0.0 0.0 0.0 0.0 0.0 0.0 0.0 0.0 0.0 0.0 0.0 0.0 0.0 0.0 0.0 0.0 0.0
0.0 0.0 0.0 0.0 0.0 0.0 0.0 0.0 0.0 0.0 0.0 0.0 0.0 0.0 0.0 0.0 0.0 0.0 0.0 0.0 0.0 0.0 0.0 0.0 0.0 0.0 0.0 0.0 0.0 0.0 0.0 0.0
0.0 0.0 0.0 0.0 0.0 0.0 0.0 0.0 0.0 0.0 0.0 0.0 0.0 0.0 0.0 0.0 0.0 0.0 0.0 0.0 0.0 0.0 0.0 0.0 0.0 0.0 0.0 0.0 0.0 0.0 0.0 0.0
0.0 0.0 0.0 0.0 0.0 0.0 0.0 0.0 0.0 0.0 0.0 0.0 0.0 0.5 2.6 2.0 0.8 0.0 0.0 0.0 0.0 0.0 0.0 0.0 0.0 0.0 0.0 0.0 0.0 0.0 0.0 0.2
0.0 0.0 0.0 0.0 0.0 0.0 0.0 0.0 0.0 0.0 0.0 0.0 0.0 0.8 2.0 2.6 2.6 3.0 1.4 0.0 0.0 0.0 0.0 0.0 0.0 0.0 0.0 0.0 0.0 0.0 0.0 0.0
0.0 0.0 0.0 0.0 0.0 0.0 0.0 0.0 0.0 0.0 0.0 0.0 0.0 0.0 0.9 2.1 2.5 3.8 1.8 0.0 0.0 0.0 0.0 0.0 0.0 0.0 0.0 0.0 0.0 0.0 0.0 0.0
0.0 0.0 0.0 0.0 0.0 0.0 0.0 0.0 0.0 0.0 0.0 0.0 0.0 0.0 0.0 1.7 2.3 3.2 4.0 2.4 0.0 0.0 0.0 0.0 0.0 0.0 0.0 0.0 0.0 0.0 0.0 0.2
0.0 0.0 0.0 0.0 0.0 0.0 0.0 0.0 0.0 0.0 0.0 0.0 0.0 0.3 1.0 1.4 1.9 3.0 3.8 2.4 1.6 0.0 0.0 0.0 0.0 0.0 0.0 0.0 1.4 0.4 0.0 0.2
0.0 0.0 0.0 0.0 0.0 0.0 0.0 0.0 0.0 0.0 0.0 0.0 0.0 0.0 0.0 1.9 2.8 1.5 1.6 1.1 0.0 0.0 0.0 0.0 0.0 0.0 0.0 0.0 3.6 1.4 0.8 0.2
0.0 0.0 0.0 0.0 0.0 0.0 0.0 0.0 0.0 0.0 0.0 0.0 0.0 0.0 1.0 1.5 2.7 1.4 2.0 2.4 2.3 1.1 0.5 0.1 0.2 0.5 0.0 2.0 4.6 0.8 1.6 0.6
0.0 0.0 0.0 0.0 0.0 0.0 0.0 0.0 0.0 0.0 0.0 0.0 0.0 1.8 2.8 2.6 4.0 4.4 3.9 4.0 3.5 2.7 1.4 1.4 1.8 2.0 0.2 4.8 5.0 2.2 2.2 1.2
0.0 0.0 0.0 0.0 0.0 0.0 0.0 0.0 0.0 0.0 0.0 0.0 0.5 3.0 3.8 5.2 5.2 5.4 4.4 6.2 3.7 3.3 2.4 1.0 1.8 2.4 3.2 5.4 4.6 3.0 3.2 2.8
0.0 0.0 0.0 0.0 0.0 0.0 0.0 0.0 0.0 0.0 0.0 0.0 1.8 4.7 5.6 6.6 6.6 5.6 4.3 4.9 4.1 3.7 2.5 1.8 2.8 2.6 3.8 5.4 4.4 4.0 3.2 1.4
0.0 0.0 0.0 0.0 0.0 0.0 0.0 0.0 0.0 0.0 0.0 0.0 3.1 5.3 6.2 6.6 6.6 2.6 1.1 1.7 4.8 4.8 3.2 2.6 3.6 3.2 4.4 5.4 4.2 4.4 3.0 2.0
0.0 0.0 0.0 0.0 0.0 0.0 0.0 0.0 0.0 0.0 0.0 1.0 4.1 5.0 5.0 5.8 2.4 1.6 1.6 3.5 4.5 4.8 5.2 3.8 4.7 3.0 3.8 5.8 5.0 4.6 4.8 4.2
0.0 0.0 0.0 0.0 0.0 0.0 0.0 0.0 0.0 0.0 0.0 2.2 3.0 4.2 4.4 6.0 3.0 2.2 3.8 5.8 6.8 7.4 7.2 5.8 6.8 4.6 3.6 3.2 4.0 5.8 5.0 5.4
0.0 0.0 0.0 0.0 0.0 0.0 0.0 0.0 0.0 0.0 0.0 2.0 3.0 4.0 5.4 6.4 2.0 3.0 6.8 8.8 9.0 9.8 8.6 7.6 7.4 7.4 4.2 3.8 4.4 5.4 6.4 6.0
0.0 0.0 0.0 0.0 0.0 0.0 0.0 0.0 0.0 0.0 0.8 3.0 3.8 4.8 6.2 6.6 5.2 4.6 7.4 8.0 9.8 9.4 9.6 9.2 8.8 6.0 5.0 5.2 4.8 5.2 6.0 5.6